Find Starlink 36360

NORAD ID: 68402 Int'l Des: 2026-063 Owner: SPXS Country: US Constellation: starlink operational
LEOCIRCULARRETROGRADE

Live Position

Loading 3D Globe...

About Starlink 36360

Description loading...

Upcoming Passes

Passes for default location (London). Set your location on the main map for personalized predictions.

Altitude History

Loading altitude history...

Two-Line Element Set

1 68402U 26063Y 26112.00002315 -.00131806 00000-0 -89449-3 0 9998
2 68402 97.2859 253.9683 0001675 111.0597 220.1458 15.75240313 5425
Epoch: Apr 22, 2026 • Age: 18 hours

Current Status

Altitude 348.8 km
Velocity 7.70 km/s
Sub-Earth Point -4.29°S, 128.48°E
Launch Date Mar 26, 2026
Age 26 days
Type internet

Technical Details

Classification Payload
Mass 575.00 kg
Dry Mass 530.00 kg
Total Mass 575.00 kg
Length 0.30 m
Diameter 4.10 m
Span 29.00 m
Shape Box + pan
Manufacturer SPXS
Bus Type Starlink V2MO
Phase Status In Orbit
Owner/State SPXS/US

Most Searched